Back to catalog

ONEWEB-0336

AliveCommunicationsPO
NORAD 49202·PAYLOAD·🇬🇧 United Kingdom

Launched Sep 14, 2021 from Baikonur Cosmodrome

Loading…

Next Passes (next 24 hours)

TLE

FreshSource: CelesTrak SupGP

Epoch: Sep 14, 2026, 15:15 UTC

1 49202C 21083S   26257.63593009 -.00000408  00000+0 -11192-2 0  2574
2 49202  87.8916 302.4299 0001998 106.6884 352.4467 13.13469207    15

Track ONEWEB-0336 in real time with AllMySat

Download on the App Store